Laramie, WY

9:35 AM MDT on August 17, 2017 (GMT -0600)
Laramie Regional

Weather History for KLAR - January, 2013

Change the Weather History Date:

Friday, January 4, 2013

  Actual Average Record
Temperature  
Mean Temperature 2 °F 22 °F  
Max Temperature 16 °F 33 °F 51 °F (1987)
Min Temperature -13 °F 10 °F -36 °F (1972)
Degree Days  
Heating Degree Days 63 43  
Month to date heating degree days 245 173  
Since 1 July heating degree days 3390 3846  
Cooling Degree Days 0 0  
Month to date cooling degree days 0 0  
Year to date cooling degree days 0 0  
Moisture  
Dew Point -7 °F    
Average Humidity 74    
Maximum Humidity 87    
Minimum Humidity 61    
Precipitation  
Precipitation 0.00 in 0.00 in 0.63 in (1949)
Month to date precipitation T 0.03  
Year to date precipitation T 0.03  
Sea Level Pressure  
Sea Level Pressure 30.48 in    
Wind  
Wind Speed 2 mph (WSW)    
Max Wind Speed 9 mph    
Max Gust Speed 10 mph    
Visibility 10 miles    
Events      
T = Trace of Precipitation, MM = Missing Value Source: NWS Daily Summary

Daily Weather History Graph

Daily Weather History Graph

Search for Another Location

Airport or City:

Trip Planner

Search our weather history database for the weather conditions in past years. The results will help you decide how hot, cold, wet, or windy it might be!

Date:

Astronomy

Jan. 04, 2013 Rise Set
Actual Time 7:28 AM MST 4:47 PM MST
Civil Twilight 6:57 AM MST 5:18 PM MST
Nautical Twilight 6:23 AM MST 5:52 PM MST
Astronomical Twilight 5:49 AM MST 6:26 PM MST
Moon No Moon Rise 11:07 AM MST (1/4)
Length of Visible Light 10h 20m
Length of Day
9h 18m
Waning Gibbous, 54% of the Moon is Illuminated
Jan 4
Waning Gibbous
Jan 4
Last Quarter
Jan 11
New
Jan 18
First Quarter
Jan 26
Full

Hourly Weather History & Observations

Time (MST) Temp. Windchill Dew Point Humidity Pressure Visibility Wind Dir Wind Speed Gust Speed Precip Events Conditions
12:53 AM -6.0 °F - -11.9 °F 75% 30.49 in 10.0 mi Calm Calm - N/A   Clear
1:53 AM -4.0 °F - -9.9 °F 76% 30.52 in 10.0 mi Calm Calm - N/A   Clear
2:53 AM -7.1 °F - -11.9 °F 79% 30.53 in 10.0 mi Calm Calm - N/A   Clear
3:53 AM -11.0 °F -20.4 °F -15.0 °F 83% 30.54 in 10.0 mi WSW 3.5 mph - N/A   Clear
4:53 AM -8.0 °F -16.9 °F -13.0 °F 79% 30.51 in 10.0 mi South 3.5 mph - N/A   Clear
6:53 AM -6.0 °F - -11.9 °F 75% 30.54 in 10.0 mi Calm Calm - N/A   Clear
7:53 AM -11.9 °F - -17.0 °F 78% 30.61 in 10.0 mi Calm Calm - N/A   Clear
8:53 AM -2.0 °F -12.2 °F -9.0 °F 72% 30.57 in 10.0 mi SSW 4.6 mph - N/A   Clear
9:53 AM -0.0 °F - -6.0 °F 76% 30.56 in 10.0 mi Calm Calm - N/A   Clear
10:53 AM 5.0 °F - -2.9 °F 70% 30.49 in 10.0 mi Calm Calm - N/A   Clear
11:53 AM 7.0 °F - -0.9 °F 70% 30.45 in 10.0 mi Calm Calm - N/A   Clear
12:53 PM 12.0 °F - 1.0 °F 61% 30.41 in 9.0 mi Calm Calm - N/A   Clear
1:53 PM 12.9 °F - 1.9 °F 62% 30.37 in 10.0 mi Calm Calm - N/A   Clear
2:53 PM 10.9 °F - 3.0 °F 70% 30.39 in 10.0 mi Calm Calm - N/A   Clear
3:53 PM 9.0 °F - 1.0 °F 70% 30.42 in 10.0 mi Calm Calm - N/A   Clear
4:53 PM 3.0 °F -6.4 °F -2.0 °F 80% 30.45 in 10.0 mi West 4.6 mph - N/A   Clear
5:53 PM 8.1 °F - -0.9 °F 67% 30.38 in 10.0 mi Calm Calm - N/A   Clear
6:53 PM 3.0 °F - -4.0 °F 73% 30.43 in 10.0 mi Calm Calm - N/A   Clear
7:53 PM 1.9 °F - -2.9 °F 80% 30.46 in 10.0 mi Calm Calm - N/A   Clear
8:53 PM 1.0 °F -14.0 °F -5.1 °F 75% 30.42 in 10.0 mi North 9.2 mph - N/A   Clear
10:53 PM -8.0 °F -16.9 °F -13.0 °F 79% 30.47 in 10.0 mi SSW 3.5 mph - N/A   Clear
11:53 PM -9.9 °F -26.3 °F -13.0 °F 86% 30.46 in 10.0 mi WSW 8.1 mph - N/A   Clear